Location: Unspecified
(55.7024°N, 37.6611°E)
Time: 18:35:03
(UTC+03:00)

Vanguard 3 - Visible Passes

Search period start: 23 June 2025 00:00
Search period end: 03 July 2025 00:00
Orbit: 508 x 3215 km, 33.4° (Epoch: 22 June)

Date Brightness Start Highest point End Pass type
(mag) Time Alt. Az. Time Alt. Az. Time Alt. Az.
23 Jun 10.7 22:13:12 10° WSW 22:27:15 28° SSW 22:41:36 10° SSE visible
24 Jun 10.9 00:30:19 10° WSW 00:38:34 14° SW 00:46:30 10° SSW visible
24 Jun 10.8 23:05:28 10° WSW 23:17:43 22° SSW 23:29:43 10° S visible
25 Jun 11.0 23:59:50 10° WSW 00:07:49 14° SW 00:15:45 10° SSW visible
26 Jun 10.9 22:35:14 10° WSW 22:46:52 21° SSW 22:59:06 10° S visible
27 Jun 11.1 23:29:44 10° WSW 23:37:04 14° SW 23:44:34 10° SSW visible
28 Jun 11.0 22:05:18 10° WSW 22:16:05 20° SSW 22:27:56 10° S visible
29 Jun 11.2 23:00:08 10° WSW 23:06:22 13° SW 23:12:53 10° SSW visible
01 Jul 11.2 22:31:14 10° SW 22:35:44 11° SW 22:40:27 10° SSW visible
